Location: Serpukhov
(54.9240°N, 37.4330°E)
Time: 05:07:07
(UTC+03:00)

ISS - Visible Passes

Search period start: 25 February 2018 00:00
Search period end: 07 March 2018 00:00
Orbit: 402 x 407 km, 51.6° (Epoch: 25 February)

Date Brightness Start Highest point End Pass type
(mag) Time Alt. Az. Time Alt. Az. Time Alt. Az.
28 Feb -1.0 06:45:16 10° S 06:47:25 16° SSE 06:49:34 10° ESE visible
01 Mar -0.9 05:54:17 10° SSE 05:55:24 11° SE 05:56:30 10° ESE visible
02 Mar -1.8 06:36:16 10° SSW 06:39:01 25° SSE 06:41:46 10° E visible
03 Mar -1.5 05:44:33 10° SSW 05:46:54 18° SSE 05:49:16 10° ESE visible
04 Mar -1.2 04:54:07 12° SSE 04:54:50 13° SE 04:56:26 10° ESE visible
04 Mar -2.5 06:27:37 10° SW 06:30:39 34° SSE 06:33:40 10° E visible
05 Mar -2.2 05:36:35 16° SSW 05:38:27 27° SSE 05:41:18 10° E visible
06 Mar -1.8 04:46:19 21° SSE 04:46:19 21° SSE 04:48:49 10° ESE visible
06 Mar -3.0 06:19:08 10° WSW 06:22:16 43° S 06:25:25 10° E visible
